Location: Cactus School
(34.5700°N, 118.0931°W)
Time: 15:43:37
(UTC-08:00)

Tiros 1 - All Passes

Search period start: 22 November 2019 00:00
Search period end: 02 December 2019 00:00
Orbit: 630 x 664 km, 48.4° (Epoch: 22 November)

Date Brightness Start Highest point End Pass type
(mag) Time Alt. Az. Time Alt. Az. Time Alt. Az.
22 Nov - 11:37:33 10° SW 11:42:04 54° SE 11:46:34 10° ENE daylight
22 Nov - 13:20:20 10° W 13:24:26 30° NNW 13:28:31 10° NE daylight
22 Nov - 15:05:08 10° NW 15:07:46 15° N 15:10:26 10° NNE daylight
22 Nov - 16:48:08 10° NNW 16:51:25 18° NNE 16:54:41 10° ENE daylight
22 Nov - 18:29:46 10° NW 18:34:21 57° NE 18:38:58 10° ESE visible
22 Nov - 20:12:34 10° W 20:16:17 24° SW 20:20:01 10° S visible
23 Nov - 10:22:55 10° S 10:26:15 20° SE 10:29:36 10° E daylight
23 Nov - 12:03:30 10° WSW 12:08:05 64° NW 12:12:41 10° NE daylight
23 Nov - 13:47:36 10° WNW 13:50:57 19° NNW 13:54:19 10° NNE daylight
23 Nov - 15:31:59 10° NNW 15:34:34 15° N 15:37:09 10° NE daylight
23 Nov - 17:13:58 10° NW 17:17:58 28° NNE 17:22:00 10° E visible
23 Nov - 18:55:49 10° WNW 19:00:25 64° SW 19:05:04 10° SE visible
24 Nov - 10:47:35 10° SSW 10:52:03 49° SE 10:56:31 10° ENE daylight
24 Nov - 12:30:12 10° W 12:34:22 32° NNW 12:38:32 10° NE daylight
24 Nov - 14:14:59 10° NW 14:17:40 15° N 14:20:22 10° NNE daylight
24 Nov - 15:58:08 10° NNW 16:01:19 18° NNE 16:04:30 10° ENE daylight
24 Nov - 17:39:46 10° NW 17:44:19 52° NNE 17:48:52 10° ESE visible
24 Nov - 19:22:25 10° WNW 19:26:17 26° SW 19:30:09 10° S visible
25 Nov - 09:33:07 10° S 09:36:16 18° SE 09:39:24 10° E daylight
25 Nov - 11:13:26 10° WSW 11:18:04 70° NW 11:22:40 10° NE daylight
25 Nov - 12:57:26 10° WNW 13:00:52 20° NNW 13:04:19 10° NNE daylight
25 Nov - 14:41:55 10° NNW 14:44:27 14° N 14:47:02 10° NE daylight
25 Nov - 16:23:59 10° NW 16:27:54 26° NNE 16:31:50 10° E daylight
25 Nov - 18:05:47 10° WNW 18:10:24 70° SW 18:15:03 10° SE visible
26 Nov - 09:57:37 10° SSW 10:02:03 45° SE 10:06:27 10° ENE daylight
26 Nov - 11:40:05 10° W 11:44:18 34° NNW 11:48:32 10° NE daylight
26 Nov - 13:24:50 10° NW 13:27:34 15° N 13:30:19 10° NNE daylight
26 Nov - 15:08:08 10° NNW 15:11:13 17° NNE 15:14:19 10° NE daylight
26 Nov - 16:49:46 10° NW 16:54:16 48° NNE 16:58:46 10° ESE daylight
26 Nov - 18:32:18 10° WNW 18:36:16 28° SW 18:40:16 10° SSE visible
27 Nov - 08:43:23 10° SSE 08:46:17 16° SE 08:49:10 10° E daylight
27 Nov - 10:23:23 10° WSW 10:28:02 76° NW 10:32:39 10° NE daylight
27 Nov - 12:07:15 10° WNW 12:10:47 21° NNW 12:14:19 10° NNE daylight
27 Nov - 13:51:50 10° NNW 13:54:21 14° N 13:56:53 10° NE daylight
27 Nov - 15:33:58 10° NNW 15:37:50 25° NNE 15:41:40 10° E daylight
27 Nov - 17:15:45 10° NW 17:20:23 77° SW 17:25:02 10° SE visible
27 Nov - 19:00:51 10° WSW 19:01:57 11° SW 19:03:03 10° SW visible
28 Nov - 09:07:40 10° SSW 09:12:02 41° SE 09:16:23 10° ENE daylight
28 Nov - 10:49:57 10° W 10:54:15 36° NNW 10:58:32 10° NE daylight
28 Nov - 12:34:40 10° NW 12:37:28 16° N 12:40:16 10° NNE daylight
28 Nov - 14:18:07 10° NNW 14:21:07 17° NNE 14:24:08 10° NE daylight
28 Nov - 15:59:46 10° NW 16:04:13 45° NNE 16:08:40 10° ESE daylight
28 Nov - 17:42:12 10° WNW 17:46:17 31° SW 17:50:22 10° SSE visible
29 Nov - 07:53:41 10° SSE 07:56:18 15° SE 07:58:54 10° E daylight
29 Nov - 09:33:20 10° SW 09:38:00 83° NW 09:42:38 10° NE daylight
29 Nov - 11:17:05 10° WNW 11:20:42 22° NNW 11:24:19 10° NNE daylight
29 Nov - 13:01:44 10° NNW 13:04:15 14° N 13:06:46 10° NE daylight
29 Nov - 14:43:59 10° NNW 14:47:45 24° NNE 14:51:31 10° ENE daylight
29 Nov - 16:25:43 10° NW 16:30:22 84° SW 16:35:01 10° SE daylight
29 Nov - 18:10:12 10° WSW 18:11:58 12° SW 18:13:45 10° SSW visible
30 Nov - 08:17:44 10° SSW 08:22:02 37° SE 08:26:18 10° ENE daylight
30 Nov - 09:59:50 10° W 10:04:12 39° NNW 10:08:32 10° NE daylight
30 Nov - 11:44:30 10° NW 11:47:22 16° N 11:50:14 10° NNE daylight
30 Nov - 13:28:06 10° NNW 13:31:02 16° N 13:33:57 10° NE daylight
30 Nov - 15:09:46 10° NW 15:14:10 41° NNE 15:18:33 10° ESE daylight
30 Nov - 16:52:06 10° WNW 16:56:16 34° SW 17:00:27 10° SSE daylight
01 Dec - 07:04:02 10° SSE 07:06:18 13° SE 07:08:34 10° E daylight
01 Dec - 08:43:17 10° SW 08:47:58 90° NNW 08:52:38 10° NE daylight
01 Dec - 10:26:55 10° WNW 10:30:37 23° NNW 10:34:20 10° NNE daylight
01 Dec - 12:11:38 10° NNW 12:14:08 14° N 12:16:40 10° NNE daylight
01 Dec - 13:53:59 10° NNW 13:57:40 23° NNE 14:01:21 10° ENE daylight
01 Dec - 15:35:42 10° NW 15:40:20 89° NE 15:44:59 10° SE daylight
01 Dec - 17:19:45 10° W 17:21:59 13° SW 17:24:13 10° SSW visible
